Location: Unspecified
(41.1637°N, 24.2901°E)
Time: 15:26:59
(UTC+01:00)

ISS - Pass Details

Date: 11 March 2026
Orbit: 417 x 426 km, 51.6° (Epoch: 16 March)

Event Time Altitude Azimuth Distance (km) Brightness Sun altitude
Rises 18:05:26 0° 204° (SSW) 2,368 0.4 -8.5°
Reaches altitude 10° 18:07:45 10° 191° (S) 1,506 -0.8 -8.9°
Maximum altitude 18:10:35 25° 134° (SE) 904 -2.5 -9.4°
Enters shadow 18:12:42 14° 86° (E) 1,279 -2.0 -9.8°
